Location: Kings Park
(40.8862°N, 73.2573°W)
Time: 05:07:52
(UTC+00:00)

Okean-O - Pass Details

Date: 29 October 2020
Orbit: 638 x 641 km, 98.2° (Epoch: 29 November)

Event Time Altitude Azimuth Distance (km) Brightness Sun altitude
Rises 22:50:25 0° 146° (SE) 2,933 5.8 -11.6°
Reaches altitude 10° 22:52:43 10° 139° (SE) 2,028 4.9 -12.0°
Maximum altitude 22:56:48 39° 71° (ENE) 973 3.1 -12.8°
Drops below altitude 10° 23:00:55 10° 3° (N) 2,041 5.1 -13.5°
Sets 23:03:14 0° 356° (N) 2,955 6.0 -14.0°
